DW1490 Weather Reports


time (UTC)temp
F
wind
direction
speed
knots
gust
knots
rain 1hr
in
rain 24hr
in
rain mn
in
humidity
%
barometer
mb
20211025045524 57 90 0.9 7.0 0.00 0.00 0.00 31 1020.3
20211025044531 58 87 3.5 7.0 0.00 0.00 0.00 30 1020.8
20211025043524 59 147 3.5 8.7 0.00 0.00 0.00 29 1020.9
20211025042532 59 111 0.9 4.3 0.00 0.00 0.00 28 1020.6
20211025041526 60 93 0.9 4.3 0.00 0.00 0.00 27 1020.6
20211025040532 60 89 3.5 8.7 0.00 0.00 0.00 27 1020.5
20211025035523 61 93 3.5 8.7 0.00 0.00 0.00 25 1020.2
20211025034532 61 86 5.2 7.0 0.00 0.00 0.00 25 1020.5
20211025033523 63 73 1.7 4.3 0.00 0.00 0.00 23 1020.9
20211025032533 64 360 4.3 11.3 0.00 0.00 0.00 23 1020.5
20211025031523 65 356 3.5 8.7 0.00 0.00 0.00 22 1020.7
20211025030534 65 302 6.1 13.0 0.00 0.00 0.00 22 1020.2
20211025025524 65 330 7.0 15.6 0.00 0.00 0.00 22 1019.6
20211025024531 64 34 3.5 15.6 0.00 0.00 0.00 23 1019.6
20211025023524 64 106 2.6 4.3 0.00 0.00 0.00 23 1019.5
20211025022531 62 142 3.5 8.7 0.00 0.00 0.00 24 1018.6
20211025021525 63 110 4.3 8.7 0.00 0.00 0.00 25 1018.6
20211025020532 63 94 4.3 7.0 0.00 0.00 0.00 24 1018.0
20211025015522 64 100 0.9 4.3 0.00 0.00 0.00 23 1017.5
20211025014532 65 169 0.9 4.3 0.00 0.00 0.00 22 1017.7
20211025013524 66 178 2.6 7.0 0.00 0.00 0.00 21 1017.9
20211025012532 67 182 3.5 11.3 0.00 0.00 0.00 20 1017.6
20211025011523 67 208 1.7 11.3 0.00 0.00 0.00 20 1017.6
20211025010532 68 187 3.5 8.7 0.00 0.00 0.00 20 1018.0
20211025005524 68 167 2.6 8.7 0.00 0.00 0.00 20 1018.0
20211025004531 68 194 3.5 11.3 0.00 0.00 0.00 20 1017.9
20211025003524 69 187 4.3 8.7 0.00 0.00 0.00 20 1018.2
20211025002532 69 156 2.6 13.0 0.00 0.00 0.00 20 1018.7
20211025001525 70 204 4.3 13.0 0.00 0.00 0.00 20 1018.6
20211025000532 70 174 2.6 7.0 0.00 0.00 0.00 21 1018.4
20211024235524 70 139 0.9 4.3 0.00 0.00 0.00 22 1018.4
20211024234533 70 140 0.0 2.6 0.00 0.00 0.00 22 1018.4
20211024233523 71 145 0.9 4.3 0.00 0.00 0.00 22 1018.6
20211024232532 71 138 0.0 2.6 0.00 0.00 0.00 22 1018.9
20211024231539 72 129 1.7 7.0 0.00 0.00 0.00 22 1019.3
20211024230548 72 171 3.5 8.7 0.00 0.00 0.00 21 1019.4
20211024225524 74 180 3.5 15.6 0.00 0.00 0.00 20 1019.7
20211024224533 74 179 3.5 8.7 0.00 0.00 0.00 20 1019.6
20211024223525 73 157 3.5 7.0 0.00 0.00 0.00 21 1019.4
20211024222531 73 191 7.0 17.4 0.00 0.00 0.00 21 1019.3
20211024221525 72 187 4.3 11.3 0.00 0.00 0.00 22 1019.2
20211024220531 72 203 4.3 11.3 0.00 0.00 0.00 23 1019.2
20211024215524 73 211 7.8 21.7 0.00 0.00 0.00 23 1019.3
20211024214532 72 198 4.3 11.3 0.00 0.00 0.00 23 1019.3
20211024213523 73 169 5.2 15.6 0.00 0.00 0.00 23 1019.6
20211024212533 73 220 6.1 13.0 0.00 0.00 0.00 24 1020.0
20211024211523 72 170 4.3 13.0 0.00 0.00 0.00 25 1019.5
20211024210532 73 175 4.3 20.0 0.00 0.00 0.00 24 1019.9
20211024205524 71 157 4.3 11.3 0.00 0.00 0.00 26 1019.2
20211024204532 72 179 11.3 20.0 0.00 0.00 0.00 26 1019.6
20211024203526 72 207 7.8 17.4 0.00 0.00 0.00 26 1019.6
20211024202531 72 307 4.3 13.0 0.00 0.00 0.00 26 1019.5
20211024201524 72 192 4.3 13.0 0.00 0.00 0.00 26 1019.6
20211024200532 71 257 8.7 21.7 0.00 0.00 0.00 26 1019.8
20211024195525 72 205 5.2 11.3 0.00 0.00 0.00 26 1019.9
20211024194532 69 193 8.7 17.4 0.00 0.00 0.00 28 1019.6
20211024193523 70 223 5.2 13.0 0.00 0.00 0.00 27 1020.0
20211024192532 69 291 5.2 15.6 0.00 0.00 0.00 28 1020.0
20211024191525 70 304 8.7 21.7 0.00 0.00 0.00 28 1020.4
20211024190534 69 266 5.2 20.0 0.00 0.00 0.00 28 1020.1
20211024185523 67 99 7.0 15.6 0.00 0.00 0.00 29 1019.8
20211024184534 69 34 3.5 8.7 0.00 0.00 0.00 28 1020.3
20211024183525 67 286 4.3 11.3 0.00 0.00 0.00 30 1020.0
20211024182533 67 115 3.5 8.7 0.00 0.00 0.00 30 1020.2
20211024181527 66 211 4.3 13.0 0.00 0.00 0.00 31 1020.2
20211024180531 65 18 7.8 21.7 0.00 0.00 0.00 31 1020.2
20211024175525 67 106 2.6 8.7 0.00 0.00 0.00 30 1020.5
20211024174532 66 62 3.5 11.3 0.00 0.00 0.00 31 1020.5
20211024173525 64 329 4.3 13.0 0.00 0.00 0.00 33 1020.2
20211024172533 65 348 4.3 13.0 0.00 0.00 0.00 32 1020.4
20211024171523 64 347 6.1 15.6 0.00 0.00 0.00 34 1020.4
20211024170532 63 43 4.3 11.3 0.00 0.00 0.00 34 1020.1
20211024165525 62 86 3.5 13.0 0.00 0.00 0.00 35 1019.7
20211024164534 62 357 4.3 13.0 0.00 0.00 0.00 36 1020.1
20211024163524 61 326 5.2 8.7 0.00 0.00 0.00 37 1019.8
20211024162531 61 292 5.2 15.6 0.00 0.00 0.00 37 1019.8
20211024161525 61 19 4.3 11.3 0.00 0.00 0.00 37 1020.1
20211024160532 61 37 2.6 4.3 0.00 0.00 0.00 38 1020.0
20211024155526 60 286 3.5 8.7 0.00 0.00 0.00 38 1020.0
20211024154516 61 7 0.9 2.6 0.00 0.00 0.00 37 1019.9
20211024153525 62 131 0.0 2.6 0.00 0.00 0.00 36 1020.2
20211024152516 58 106 0.9 2.6 0.00 0.00 0.00 40 1019.3
20211024151523 60 124 0.0 2.6 0.00 0.00 0.00 40 1019.8
20211024150533 57 105 1.7 4.3 0.00 0.00 0.00 42 1019.1
20211024145524 55 106 2.6 7.0 0.00 0.00 0.00 43 1019.2
20211024144535 57 335 1.7 7.0 0.00 0.00 0.00 43 1019.6
20211024143524 56 103 1.7 4.3 0.00 0.00 0.00 43 1019.5
20211024142517 54 117 1.7 4.3 0.00 0.00 0.00 45 1018.8
20211024141524 53 107 3.5 4.3 0.00 0.00 0.00 47 1018.6
20211024140516 51 111 2.6 7.0 0.00 0.00 0.00 48 1017.9
20211024135524 49 98 3.5 8.7 0.00 0.00 0.00 51 1017.5
20211024134516 49 91 5.2 8.7 0.00 0.00 0.00 51 1017.1
20211024133526 50 90 4.3 8.7 0.00 0.00 0.00 50 1017.5
20211024132518 50 91 6.1 8.7 0.00 0.00 0.00 49 1017.4
20211024131524 50 87 6.1 11.3 0.00 0.00 0.00 48 1017.6
20211024130517 51 107 3.5 7.0 0.00 0.00 0.00 47 1018.1
20211024125526 51 95 4.3 8.7 0.00 0.00 0.00 46 1017.9
20211024124533 51 89 4.3 8.7 0.00 0.00 0.00 45 1017.8
20211024123525 52 107 5.2 11.3 0.00 0.00 0.00 44 1018.2
20211024122518 53 120 4.3 8.7 0.00 0.00 0.00 42 1018.6
20211024121525 53 116 7.8 11.3 0.00 0.00 0.00 41 1018.4
20211024120532 52 104 5.2 8.7 0.00 0.00 0.00 42 1018.1
20211024115524 53 104 5.2 8.7 0.00 0.00 0.00 42 1018.2
20211024114518 53 124 5.2 8.7 0.00 0.00 0.00 41 1017.9
20211024113527 53 118 6.1 8.7 0.00 0.00 0.00 42 1017.9
20211024112516 53 99 3.5 8.7 0.00 0.00 0.00 41 1018.1
20211024111523 54 144 3.5 7.0 0.00 0.00 0.00 40 1018.0
20211024110517 54 126 4.3 8.7 0.00 0.00 0.00 39 1018.2
20211024105540 54 122 6.1 11.3 0.00 0.00 0.00 39 1018.2
20211024104517 54 92 7.0 13.0 0.00 0.00 0.00 38 1018.1
20211024103524 54 91 7.8 13.0 0.00 0.00 0.00 39 1018.0
20211024102518 54 94 4.3 8.7 0.00 0.00 0.00 39 1018.1
20211024101524 54 136 2.6 4.3 0.00 0.00 0.00 38 1017.8
20211024100518 54 163 4.3 8.7 0.00 0.00 0.00 39 1017.7
20211024095524 54 134 2.6 4.3 0.00 0.00 0.00 38 1018.1
20211024094516 55 105 2.6 4.3 0.00 0.00 0.00 38 1018.3
20211024093525 56 113 3.5 7.0 0.00 0.00 0.00 36 1018.4
20211024092519 57 165 5.2 11.3 0.00 0.00 0.00 35 1018.4
20211024091526 57 175 6.1 11.3 0.00 0.00 0.00 35 1018.6
20211024090519 57 167 6.1 8.7 0.00 0.00 0.00 34 1018.2
20211024085525 56 148 3.5 8.7 0.00 0.00 0.00 34 1018.6
20211024084517 56 133 2.6 7.0 0.00 0.00 0.00 34 1018.3
20211024083524 56 126 3.5 7.0 0.00 0.00 0.00 33 1018.8
20211024082517 57 152 3.5 11.3 0.00 0.00 0.00 33 1018.4
20211024081524 57 136 3.5 7.0 0.00 0.00 0.00 32 1018.0
20211024080516 57 152 3.5 7.0 0.00 0.00 0.00 32 1017.6
20211024075526 57 171 6.1 11.3 0.00 0.00 0.00 31 1018.2
20211024074516 57 163 4.3 8.7 0.00 0.00 0.00 31 1017.6
20211024073525 58 164 2.6 7.0 0.00 0.00 0.00 31 1017.6
20211024072516 58 162 5.2 8.7 0.00 0.00 0.00 30 1018.0
20211024071525 58 154 2.6 4.3 0.00 0.00 0.00 29 1017.9
20211024070517 58 180 3.5 8.7 0.00 0.00 0.00 29 1018.0
20211024065524 57 178 6.1 11.3 0.00 0.00 0.00 29 1017.9
20211024064517 58 167 4.3 7.0 0.00 0.00 0.00 28 1017.9
20211024063524 58 129 2.6 7.0 0.00 0.00 0.00 28 1017.7
20211024062518 58 131 2.6 4.3 0.00 0.00 0.00 29 1017.4
20211024061524 59 120 2.6 7.0 0.00 0.00 0.00 28 1017.6
20211024060519 59 92 0.9 2.6 0.00 0.00 0.00 27 1017.2
20211024055524 59 111 0.9 4.3 0.00 0.00 0.00 27 1014.3
20211024054519 60 102 0.0 2.6 0.00 0.00 0.00 26 1014.6
20211024053526 60 165 0.9 4.3 0.00 0.00 0.00 26 1014.4
20211024052517 60 185 1.7 7.0 0.00 0.00 0.00 26 1014.2
20211024051524 60 165 0.9 2.6 0.00 0.00 0.00 25 1014.2
20211024050517 60 199 2.6 7.0 0.00 0.00 0.00 25 1014.1